SWR1DE LSZH-LFPG

Flight info

Callsign SWR1DE
Flight time 0h 54m
Altitude 31000
Route VEBIT T10 LUMEL T14 MOROK DCT PENDU DCT JAVVU DCT GIVRI/N0441F320 DCT TINIL
Aircraft A321/M-SDE3FGHIRWY/LB1

Departure

Time 2026-05-04 09:14
Airport Zürich Airport (LSZH)

Arrival

Time 2026-05-04 10:08
Airport Charles de Gaulle International Airport (LFPG)
Time Latitude Longitude Altitude Speed Heading
2026-05-04 08:46 47.45422 8.55873 1407 ft 0 kts 186°
2026-05-04 09:07 47.45507 8.55771 1407 ft 0 kts 96°
2026-05-04 09:09 47.45507 8.55772 1407 ft 1 kts 96°
2026-05-04 09:09 47.45502 8.55837 1415 ft 10 kts 96°
2026-05-04 09:09 47.45495 8.55935 1412 ft 10 kts 96°
2026-05-04 09:09 47.45486 8.56070 1409 ft 14 kts 96°
2026-05-04 09:10 47.45489 8.56227 1415 ft 18 kts 53°
2026-05-04 09:10 47.45565 8.56371 1413 ft 16 kts 51°
2026-05-04 09:10 47.45593 8.56505 1415 ft 13 kts 96°
2026-05-04 09:10 47.45583 8.56653 1418 ft 20 kts 95°
2026-05-04 09:11 47.45571 8.56818 1420 ft 13 kts 98°
2026-05-04 09:11 47.45568 8.56971 1421 ft 20 kts 70°
2026-05-04 09:11 47.45663 8.56968 1424 ft 15 kts 294°
2026-05-04 09:11 47.45682 8.56751 1423 ft 37 kts 276°
2026-05-04 09:12 47.45735 8.55997 1414 ft 107 kts 276°
2026-05-04 09:12 47.45832 8.54628 1403 ft 158 kts 276°
2026-05-04 09:14 47.42749 8.42986 3995 ft 264 kts 231°
2026-05-04 09:14 47.41620 8.40774 4650 ft 274 kts 236°
2026-05-04 09:14 47.40549 8.38416 5463 ft 279 kts 236°
2026-05-04 09:14 47.39479 8.35999 6314 ft 283 kts 235°
2026-05-04 09:15 47.38477 8.33476 7092 ft 287 kts 241°
2026-05-04 09:15 47.37575 8.30863 7950 ft 286 kts 241°
2026-05-04 09:15 47.36675 8.28256 8837 ft 284 kts 241°
2026-05-04 09:15 47.35775 8.25676 9752 ft 281 kts 240°
2026-05-04 09:17 47.27654 8.01968 14080 ft 347 kts 253°
2026-05-04 09:18 47.27271 7.98435 14642 ft 353 kts 265°
2026-05-04 09:18 47.27416 7.94801 15192 ft 360 kts 276°
2026-05-04 09:18 47.27784 7.91138 15762 ft 363 kts 275°
2026-05-04 09:18 47.28145 7.87442 16316 ft 367 kts 275°
2026-05-04 09:19 47.28501 7.83694 16859 ft 371 kts 275°
2026-05-04 09:19 47.28853 7.79918 17380 ft 375 kts 275°
2026-05-04 09:19 47.29207 7.76093 17908 ft 379 kts 275°
2026-05-04 09:19 47.29566 7.72229 18411 ft 382 kts 275°
2026-05-04 09:20 47.29929 7.68339 18850 ft 386 kts 275°
2026-05-04 09:20 47.30304 7.64400 19282 ft 390 kts 276°
2026-05-04 09:20 47.30966 7.60505 19717 ft 395 kts 284°
2026-05-04 09:20 47.31813 7.56648 20165 ft 398 kts 284°
2026-05-04 09:21 47.32664 7.52754 20614 ft 401 kts 284°
2026-05-04 09:21 47.33516 7.48830 21059 ft 403 kts 284°
2026-05-04 09:21 47.34367 7.44875 21519 ft 407 kts 283°
2026-05-04 09:21 47.35224 7.40887 21971 ft 409 kts 284°
2026-05-04 09:22 47.36088 7.36877 22418 ft 412 kts 284°
2026-05-04 09:22 47.36957 7.32884 22819 ft 415 kts 284°
2026-05-04 09:22 47.37843 7.28808 23254 ft 419 kts 284°
2026-05-04 09:22 47.38729 7.24693 23690 ft 423 kts 284°
2026-05-04 09:23 47.39620 7.20549 24064 ft 424 kts 284°
2026-05-04 09:23 47.40376 7.16355 24445 ft 422 kts 276°
2026-05-04 09:23 47.40654 7.12071 24816 ft 419 kts 266°
2026-05-04 09:23 47.40570 7.07781 25203 ft 418 kts 264°
2026-05-04 09:25 47.39927 6.77338 27836 ft 430 kts 265°
2026-05-04 09:25 47.39840 6.72928 28222 ft 430 kts 264°
2026-05-04 09:26 47.39740 6.68510 28562 ft 431 kts 264°
2026-05-04 09:26 47.39612 6.64085 28931 ft 432 kts 262°
2026-05-04 09:26 47.39375 6.59675 29244 ft 432 kts 260°
2026-05-04 09:26 47.39048 6.55266 29546 ft 433 kts 259°
2026-05-04 09:27 47.38673 6.50853 29881 ft 434 kts 258°
2026-05-04 09:27 47.38292 6.46463 30320 ft 429 kts 258°
2026-05-04 09:27 47.37914 6.42099 30661 ft 428 kts 258°
2026-05-04 09:27 47.37553 6.37739 31014 ft 427 kts 259°
2026-05-04 09:28 47.37213 6.33395 31392 ft 426 kts 259°
2026-05-04 09:28 47.36888 6.29055 31748 ft 425 kts 259°
2026-05-04 09:28 47.36564 6.24722 31985 ft 424 kts 259°
2026-05-04 09:28 47.36241 6.20435 32051 ft 417 kts 259°
2026-05-04 09:29 47.35702 6.13423 32049 ft 413 kts 258°
2026-05-04 09:29 47.35033 6.05026 32046 ft 412 kts 258°
2026-05-04 09:30 47.34355 5.96641 32052 ft 412 kts 258°
2026-05-04 09:30 47.33655 5.88269 32052 ft 411 kts 258°
2026-05-04 09:31 47.32938 5.79816 32077 ft 423 kts 258°
2026-05-04 09:31 47.32219 5.71057 32048 ft 435 kts 258°
2026-05-04 09:32 47.31514 5.62175 32056 ft 437 kts 259°
2026-05-04 09:34 47.33527 5.31695 32051 ft 473 kts 309°
2026-05-04 09:34 47.36104 5.28613 32045 ft 484 kts 324°
2026-05-04 09:34 47.42003 5.23761 32038 ft 487 kts 326°
2026-05-04 09:35 47.47929 5.18901 32052 ft 487 kts 326°
2026-05-04 09:35 47.53847 5.14022 32042 ft 487 kts 326°
2026-05-04 09:37 47.72566 4.92685 28264 ft 489 kts 315°
2026-05-04 09:37 47.75193 4.89364 27660 ft 490 kts 315°
2026-05-04 09:38 47.77792 4.86086 27167 ft 492 kts 315°
2026-05-04 09:38 47.80371 4.82824 26641 ft 494 kts 316°
2026-05-04 09:38 47.82988 4.79512 26111 ft 495 kts 315°
2026-05-04 09:38 47.85640 4.76144 25576 ft 496 kts 316°
2026-05-04 09:39 47.88235 4.72839 25046 ft 497 kts 316°
2026-05-04 09:39 47.90862 4.69487 24506 ft 499 kts 316°
2026-05-04 09:39 47.93502 4.66111 23990 ft 500 kts 316°
2026-05-04 09:39 47.96146 4.62722 23410 ft 503 kts 316°
2026-05-04 09:40 47.98787 4.59335 22922 ft 495 kts 316°
2026-05-04 09:40 48.01356 4.56045 22667 ft 479 kts 316°
2026-05-04 09:40 48.03862 4.52833 22128 ft 470 kts 316°
2026-05-04 09:40 48.06322 4.49674 21498 ft 463 kts 316°
2026-05-04 09:41 48.08756 4.46540 20814 ft 459 kts 316°
2026-05-04 09:42 48.25212 4.25228 17434 ft 434 kts 316°
2026-05-04 09:43 48.27278 4.22001 16982 ft 426 kts 307°
2026-05-04 09:43 48.29158 4.18579 16527 ft 423 kts 307°
2026-05-04 09:43 48.31022 4.15173 16349 ft 421 kts 307°
2026-05-04 09:43 48.32883 4.11780 16191 ft 420 kts 307°
2026-05-04 09:44 48.34755 4.08405 16014 ft 420 kts 307°
2026-05-04 09:44 48.36609 4.05027 15838 ft 418 kts 307°
2026-05-04 09:44 48.38454 4.01642 15665 ft 418 kts 308°
2026-05-04 09:46 48.51234 3.78118 14469 ft 410 kts 308°
2026-05-04 09:46 48.53034 3.74788 14300 ft 410 kts 308°
2026-05-04 09:46 48.54718 3.71332 14137 ft 407 kts 301°
2026-05-04 09:47 48.56264 3.67752 13977 ft 406 kts 302°
2026-05-04 09:47 48.57797 3.64172 13804 ft 404 kts 302°
2026-05-04 09:49 48.68420 3.39356 12333 ft 398 kts 302°
2026-05-04 09:49 48.69916 3.35836 12074 ft 396 kts 302°
2026-05-04 09:49 48.71402 3.32332 11810 ft 396 kts 302°
2026-05-04 09:51 48.80231 3.11467 10990 ft 390 kts 302°
2026-05-04 09:51 48.81690 3.07998 10999 ft 391 kts 302°
2026-05-04 09:51 48.83129 3.04569 11004 ft 390 kts 302°
2026-05-04 09:51 48.84641 3.01164 10999 ft 389 kts 308°
2026-05-04 09:52 48.86443 2.98113 10998 ft 386 kts 312°
2026-05-04 09:52 48.88207 2.95199 10992 ft 363 kts 312°
2026-05-04 09:52 48.89867 2.92452 11003 ft 346 kts 312°
2026-05-04 09:52 48.91472 2.89764 11000 ft 343 kts 309°
2026-05-04 09:53 48.92745 2.86737 10772 ft 336 kts 293°
2026-05-04 09:53 48.93404 2.83394 10527 ft 325 kts 277°
2026-05-04 09:53 48.93471 2.80047 10278 ft 311 kts 264°
2026-05-04 09:53 48.93283 2.76806 10037 ft 304 kts 264°
2026-05-04 09:54 48.93112 2.73640 9789 ft 297 kts 265°
2026-05-04 09:54 48.92952 2.70541 9523 ft 291 kts 265°
2026-05-04 09:54 48.92795 2.67495 9258 ft 287 kts 265°
2026-05-04 09:54 48.92639 2.64481 8996 ft 285 kts 265°
2026-05-04 09:55 48.92481 2.61478 8735 ft 285 kts 265°
2026-05-04 09:55 48.92320 2.58463 8477 ft 287 kts 265°
2026-05-04 09:55 48.92155 2.55447 8225 ft 286 kts 265°
2026-05-04 09:55 48.91989 2.52449 7972 ft 284 kts 265°
2026-05-04 09:56 48.91823 2.49457 7725 ft 284 kts 265°
2026-05-04 09:56 48.91659 2.46478 7467 ft 282 kts 265°
2026-05-04 09:56 48.91495 2.43506 7217 ft 282 kts 265°
2026-05-04 09:56 48.91332 2.40545 6971 ft 280 kts 265°
2026-05-04 09:57 48.91170 2.37603 6726 ft 279 kts 265°
2026-05-04 09:57 48.91011 2.34679 6484 ft 275 kts 265°
2026-05-04 09:57 48.90851 2.31818 6241 ft 268 kts 265°
2026-05-04 09:57 48.90695 2.29049 6088 ft 257 kts 265°
2026-05-04 09:58 48.90541 2.26390 5966 ft 247 kts 265°
2026-05-04 09:58 48.90391 2.23814 5851 ft 243 kts 264°
2026-05-04 09:58 48.90242 2.21252 5727 ft 243 kts 264°
2026-05-04 10:00 48.91553 2.04632 5003 ft 239 kts 333°
2026-05-04 10:00 48.93138 2.03960 5013 ft 238 kts 358°
2026-05-04 10:02 48.97474 2.17766 5014 ft 233 kts 85°
2026-05-04 10:04 48.98382 2.33767 3165 ft 188 kts 86°
2026-05-04 10:04 48.98492 2.35740 2916 ft 186 kts 86°
2026-05-04 10:04 48.98601 2.37692 2660 ft 184 kts 86°
2026-05-04 10:04 48.98709 2.39629 2411 ft 183 kts 86°
2026-05-04 10:05 48.98816 2.41563 2161 ft 183 kts 86°
2026-05-04 10:05 48.98920 2.43434 1927 ft 170 kts 86°
2026-05-04 10:05 48.99016 2.45167 1709 ft 156 kts 86°
2026-05-04 10:05 48.99104 2.46768 1489 ft 148 kts 86°
2026-05-04 10:06 48.99187 2.48291 1296 ft 145 kts 87°
2026-05-04 10:06 48.99266 2.49814 1089 ft 143 kts 87°
2026-05-04 10:06 48.99337 2.51311 911 ft 141 kts 86°
2026-05-04 10:08 48.99798 2.58298 359 ft 29 kts 64°
2026-05-04 10:08 48.99864 2.58514 354 ft 14 kts 65°
2026-05-04 10:08 48.99893 2.58605 358 ft 7 kts 64°
2026-05-04 10:08 48.99916 2.58677 364 ft 11 kts 60°
2026-05-04 10:09 48.99996 2.58728 354 ft 14 kts 339°
2026-05-04 10:09 49.00025 2.58577 354 ft 19 kts 268°
2026-05-04 10:09 49.00017 2.58388 361 ft 13 kts 270°
2026-05-04 10:09 49.00060 2.58316 354 ft 9 kts 331°
2026-05-04 10:10 49.00088 2.58214 358 ft 13 kts 270°
2026-05-04 10:10 49.00091 2.58126 354 ft 4 kts 315°
2026-05-04 10:10 49.00121 2.58119 360 ft 4 kts 355°
2026-05-04 10:10 49.00145 2.58116 354 ft 3 kts 355°
2026-05-04 10:11 49.00155 2.58115 354 ft 0 kts 356°